Starlink 31322

operational
NORAD ID: 59168 Int'l Des: 2024-044 Owner: SPXS Country: US Constellation: starlink
LEOCIRCULAR

About Starlink 31322

Description loading...

Live Position

Loading 3D Globe...

Upcoming Passes

Altitude History

Altitude vs Time

uPlot chart will show altitude changes over time

Two-Line Element Set

1 59168U 24044S 25302.86315019 -.00000579 00000-0 -11505-4 0 9997
2 59168 43.0001 126.1780 0001153 265.1652 94.9068 15.27574287 93580
Epoch: Oct 29, 2025 • Age: 27 hours

Current Status

Altitude 482.7 km
Velocity 7.63 km/s
Sub-Earth Point 1.75°N, 104.2°W
Launch Date Mar 4, 2024
Age 1.6 years
Type internet

Technical Details

Classification Payload
Mass 730.00 kg
Dry Mass 700.00 kg
Total Mass 730.00 kg
Length 0.30 m
Diameter 4.10 m
Span 29.00 m
Shape Box + pan
Manufacturer SPXS
Bus Type Starlink V2M
Phase Status In Orbit
Owner/State SPXS/US

Large Constellations

Loading constellations...